Home   Weather   Easter Island   Past weeks
Flag for Chile

Past Weather in Easter Island, Chile — Yesterday and Last 2 Weeks

Now
66 °F

Partly cloudy.


Feels Like: 66 °F
Forecast: 72 / 63 °F
Wind: 9 mph from North

Location: Isla De Pascua

Current Time: Oct 19, 2019 at 2:02:51 am

Latest Report: Oct 19, 2019 at 1:00 am


Visibility: N/A

Pressure: 30.15 "Hg

Humidity: 83%

Dew Point: 61 °F

Location of Easter IslandLocation

Past Weather in Easter Island — Graph

°F

Easter Island Temperature Yesterday

Maximum temperature yesterday: 73 °F (at 2:00 pm)
Minimum temperature yesterday: 61 °F (at 1:00 am)
Average temperature yesterday: 67 °F

High & Low Weather Summary for the Past Weeks

 TemperatureHumidityPressure
High75 °F (Oct 17, 2:00 pm)100% (Oct 6, 12:00 am)30.39 "Hg (Oct 6, 12:00 am)
Low57 °F (Oct 10, 5:00 am)49% (Oct 14, 12:00 pm)30.01 "Hg (Oct 6, 5:00 am)
Average66 °F71%30.16 "Hg
* Reported Oct 4 12:00 am — Oct 19 12:00 am, Easter Island. Weather by CustomWeather, © 2019

Note: Actual official high and low records may vary slightly from our data, if they occured in-between our weather recording intervals... More about our weather records

Advertising

Easter Island Weather History for the Previous 24 Hours

Scroll right to see more
 ConditionsComfort  
Time TempWeatherWind HumidityBarometerVisibility
12:00 am
Sat, Oct 19
68 °FPassing clouds.9 mph78%30.18 "HgN/A
11:00 pm
Fri, Oct 18
68 °FPassing clouds.6 mph78%30.15 "HgN/A
10:00 pm68 °FPassing clouds.9 mph78%30.15 "HgN/A
9:00 pm68 °FPartly sunny.8 mph78%30.15 "HgN/A
8:00 pm68 °FBroken clouds.12 mph78%30.15 "HgN/A
7:00 pm70 °FBroken clouds.14 mph78%30.15 "HgN/A
6:00 pm70 °FBroken clouds.14 mph78%30.15 "HgN/A
5:00 pm72 °FBroken clouds.13 mph73%30.18 "HgN/A
4:00 pm73 °FBroken clouds.14 mph69%30.18 "HgN/A
3:00 pm72 °FPartly sunny.14 mph69%30.21 "HgN/A
2:00 pm73 °FBroken clouds.15 mph57%30.24 "HgN/A
1:00 pm72 °FBroken clouds.13 mph65%30.24 "HgN/A
12:00 pm72 °FBroken clouds.12 mph65%30.27 "HgN/A
11:00 am70 °FBroken clouds.14 mph73%30.27 "HgN/A
10:00 am70 °FSprinkles. Broken clouds.12 mph73%30.27 "HgN/A
9:00 am68 °FScattered clouds.6 mph78%30.27 "HgN/A
8:00 am64 °FPassing clouds.5 mph83%30.24 "HgN/A
7:00 am61 °FPassing clouds.2 mph88%30.24 "HgN/A
6:00 am61 °FPartly cloudy.2 mph88%30.24 "HgN/A
5:00 am61 °FPartly cloudy.3 mph88%30.27 "HgN/A
4:00 am63 °FPartly cloudy.3 mph83%30.27 "HgN/A
3:00 am63 °FPassing clouds.3 mph83%30.30 "HgN/A
2:00 am61 °FPassing clouds.5 mph88%30.30 "HgN/A
Weather by CustomWeather, © 2019

See weather overview